Location: Newark
(55.7083°N, 13.1992°E)
Time: 09:38:10
(UTC+00:00)

Transit 4A - Pass Details

Date: 21 February 2020
Orbit: 871 x 973 km, 66.8° (Epoch: 07 April)

Event Time Altitude Azimuth Distance (km) Brightness Sun altitude
Exits shadow 03:20:58 26° 325° (NW) 1,650 9.0 -25.5°
Maximum altitude 03:22:24 29° 350° (N) 1,546 9.1 -25.3°
Drops below altitude 10° 03:27:28 10° 50° (NE) 2,533 11.1 -24.7°
Sets 03:30:18 0° 61° (ENE) 3,478 12.2 -24.3°
